Tracking 29892 objects as of 21-Nov-2024
HD Live streaming from Space Station
objects crossing your sky now

STARLINK-4146

Track STARLINK-4146 now!
10-day predictions
STARLINK-4146 is classified as:


NORAD ID: 53294
Int'l Code: 2022-086BE
Perigee: 545.8 km
Apogee: 548.0 km
Inclination: 53.2 °
Period: 95.4 minutes
Semi major axis: 6917 km
RCS: Unknown
Launch date: July 24, 2022
Source: United States (US)
Launch site: AIR FORCE EASTERN TEST RANGE (AFETR)
Your satellite tracking list
Your tracking list is empty




NASA's NSSDC Master Catalog

Two Line Element Set (TLE):
1 53294U 22086BE  24325.88885247  .00000708  00000-0  62570-4 0  9996
2 53294  53.2161 140.9257 0001598  83.1906 276.9268 15.08846401129640
Source of the keplerian elements: AFSPC